This demonstration page uses our WeatherBlox Daily Observations layout. Learn more.

Left ArrowRight Arrow

Hourly Observations for May 9, 2015

Temp ( °F °C ) Dew Point ( °F °C ) Humidity (%) Winds ( mph kmh ) Pressure ( in mb ) Visibility ( mi km ) Precip ( " mm )
12:52 am 00:52 Cloudy 55 12.8 49 9.4 80 80 NNW 7 11 30.09 1019 10 16 0.00 0.00
1:52 am 01:52 Cloudy 55 12.8 49 9.4 80 80 NNW 6 9 30.09 1019 10 16 0.00 0.00
2:52 am 02:52 Cloudy 54 12.2 49 9.4 83 83 N 8 13 30.08 1019 10 16 0.00 0.00
3:52 am 03:52 Mostly Cloudy 53 11.7 49 9.4 86 86 N 8 13 30.08 1019 10 16 0.00 0.00
4:52 am 04:52 Mostly Cloudy 52 11.1 45 7.2 77 77 N 8 13 30.09 1019 10 16 0.00 0.00
5:52 am 05:52 Cloudy 50 10 42 5.6 74 74 N 12 19 30.09 1019 10 16 0.00 0.00
6:52 am 06:52 Mostly Cloudy 48 8.9 41 5 77 77 N 10 17 30.11 1020 10 16 0.00 0.00
7:52 am 07:52 Mostly Cloudy 50 10 42 5.6 74 74 N 9 15 30.10 1019 9 14 0.00 0.00
8:52 am 08:52 Mostly Sunny 54 12.2 45 7.2 72 72 NNE 8 13 30.07 1018 10 16 0.00 0.00
9:52 am 09:52 Mostly Sunny 58 14.4 47 8.3 67 67 ENE 13 20 30.06 1018 10 16 0.00 0.00
10:52 am 10:52 Partly Cloudy 62 16.7 49 9.4 62 62 E 10 17 30.04 1017 10 16 0.00 0.00
11:52 am 11:52 Mostly Cloudy 64 17.8 51 10.6 63 63 ENE 10 17 30.06 1018 10 16 0.00 0.00
12:52 pm 12:52 Cloudy 67 19.4 52 11.1 59 59 E 15 24 30.04 1017 10 16 0.00 0.00
1:52 pm 13:52 Cloudy 68 20 53 11.7 59 59 ESE 8 13 30.01 1016 10 16 0.00 0.00
2:52 pm 14:52 Cloudy 69 20.6 53 11.7 57 57 ESE 9 15 29.98 1015 10 16 0.00 0.00
3:52 pm 15:52 Cloudy 70 21.1 54 12.2 57 57 ENE 12 19 29.94 1014 10 16 0.00 0.00
4:52 pm 16:52 Cloudy 71 21.7 55 12.8 57 57 E 9 15 29.92 1013 10 16 0.00 0.00
5:52 pm 17:52 Cloudy 71 21.7 56 13.3 59 59 ESE 12 19 29.92 1013 10 16 0.00 0.00
6:52 pm 18:52 Cloudy 70 21.1 57 13.9 64 64 E 10 17 29.90 1012 10 16 0.00 0.00
7:52 pm 19:52 Cloudy 70 21.1 57 13.9 64 64 E 8 13 29.89 1012 10 16 0.00 0.00
8:52 pm 20:52 Cloudy 69 20.6 56 13.3 63 63 E 17 28 29.86 1011 10 16 0.00 0.00
9:52 pm 21:52 Cloudy 68 20 56 13.3 65 65 ESE 13 20 29.88 1012 10 16 0.00 0.00
10:52 pm 22:52 Cloudy 67 19.4 57 13.9 71 71 ESE 10 17 29.87 1011 10 16 0.00 0.00
11:52 pm 23:52 Cloudy 65 18.3 58 14.4 78 78 ESE 6 9 29.85 1011 10 16 0.00 0.00

Powered by AerisWeather